Home > Weather > Osage City > Past weeks

Flag for USA Weather for the Past 2 Weeks in Osage City, Kansas, USA

Now
69 °F

Scattered clouds.


Feels Like: 69 °F
Forecast: 42 / 71 °F
Wind: 3 mph from Southwest

Location: Forbes Field

Current Time: May 3, 2016 at 4:02:31 PM

Latest Report: May 3, 2016 at 2:53 PM


Visibility: 10 mi

Pressure: 30.01 "Hg

Humidity: 39%

Dew Point: 43 °F

Location of Osage CityLocation

Historic Weather in Osage City — Graph

°F

Osage City Temperature Yesterday

Maximum temperature yesterday: 59 °F (at 1:53 PM)
Minimum temperature yesterday: 47 °F (at 9:53 PM)
Average temperature yesterday: 53 °F

High & Low Weather Summary for the Past Weeks

 TemperatureHumidityPressure
High81 °F (Apr 23, 3:53 PM)97% (May 3, 6:53 AM)30.20 "Hg (May 3, 6:53 AM)
Low39 °F (May 3, 5:53 AM)34% (Apr 23, 4:53 PM)29.39 "Hg (Apr 27, 3:53 AM)
Average60 °F73%29.88 "Hg
* Reported Apr 18 2:53 PM — May 3 2:53 PM, Osage City, Weather by CustomWeather, © 2016

Note: Actual official high and low records may vary slightly from our data, if they occured in-between our weather recording intervals... More about our weather records

Advertising

Osage City Weather History for the Previous 24 Hours

Scroll right to see more
 ConditionsComfort  
Time TempWeatherWind HumidityBarometerVisibility
2:53 PM
Tue, May 3
69 °FScattered clouds.3 mph39%30.01 "Hg10 mi
1:53 PM69 °FScattered clouds.3 mph39%30.03 "Hg10 mi
12:53 PM66 °FPartly sunny.3 mph43%30.06 "Hg10 mi
11:53 AM66 °FSunny.6 mph40%30.07 "Hg10 mi
10:53 AM64 °FSunny.7 mph45%30.07 "Hg10 mi
9:53 AM60 °FSunny.5 mph62%30.09 "Hg10 mi
8:53 AM56 °FSunny.3 mph75%30.10 "Hg10 mi
7:53 AM49 °FSunny.No wind86%30.09 "Hg10 mi
6:53 AM40 °FFog.No wind97%30.08 "Hg4 mi
5:53 AM39 °FClear.No wind93%30.07 "Hg9 mi
4:53 AM41 °FClear.No wind93%30.07 "Hg8 mi
3:53 AM42 °FClear.No wind89%30.06 "Hg10 mi
2:53 AM44 °FClear.No wind89%30.06 "Hg10 mi
1:53 AM43 °FClear.3 mph93%30.06 "Hg10 mi
12:53 AM45 °FClear.No wind93%30.07 "Hg10 mi
11:53 PM
Mon, May 2
47 °FClear.3 mph86%30.07 "Hg10 mi
10:53 PM48 °FClear.3 mph86%30.08 "Hg10 mi
9:53 PM47 °FClear.6 mph90%30.08 "Hg10 mi
8:53 PM50 °FSunny.No wind83%30.07 "Hg10 mi
7:53 PM57 °FPassing clouds.No wind67%30.07 "Hg10 mi
6:53 PM59 °FPartly sunny.5 mph62%30.07 "Hg10 mi
5:53 PM58 °FOvercast.5 mph62%30.07 "Hg10 mi
4:53 PM59 °FOvercast.8 mph58%30.07 "Hg10 mi
Weather by CustomWeather, © 2016

See weather overviewHow to use our weather pages